Location: Ligonchio
(44.3167°N, 10.3500°E)
Time: 15:31:18
(UTC+00:00)

Daily predictions for brighter satellites

Satellite Brightness Start Highest point End
(mag) Time Altitude Azimuth Time Altitude Azimuth Time Altitude Azimuth
COSMO-SKYMED 1 2.7 17:34:18 10° NNE 17:38:40 83° WNW 17:43:00 10° SSW
Cosmos 1707 3.2 17:35:49 10° N 17:39:23 38° ENE 17:42:57 10° SSE
NOSS 3-1 (C) 4.3 17:32:15 10° NNW 17:39:32 60° NE 17:48:10 10° SE
Cosmos 1980 Rocket 3.8 17:37:41 10° ESE 17:39:48 12° E 17:41:55 10° ENE
Cosmos 1674 3.7 17:37:12 10° NNE 17:40:24 26° ENE 17:43:34 10° SE
BREEZE-M DEB (TANK) 4.1 17:37:55 10° SSW 17:41:50 45° SE 17:54:44 10° ENE
Cosmos 2242 Rocket 3.6 17:42:25 10° N 17:46:49 62° E 17:51:09 10° SSE
Okean 2 4.5 17:44:45 10° NNE 17:48:15 25° ENE 17:51:43 10° SE
ISS -1.9 17:45:27 10° WNW 17:48:20 25° N 17:51:12 10° NE
Okean O Rocket 1.9 17:45:47 10° SE 17:49:55 46° ENE 17:54:05 10° N
Cosmos 1656 3.7 17:45:29 10° SSW 17:50:59 69° ESE 17:56:36 10° NNE
ARGOS Delta rocket 4.1 17:47:26 10° NNE 17:52:50 61° E 17:57:59 10° S
Okean 1-7 3.7 17:53:10 10° NNW 17:57:21 59° W 18:01:31 10° S
CZ-4 R/B 1.7 17:53:55 10° SE 17:57:52 46° ENE 18:01:52 10° N
Cosmos 1140 Rocket 3.9 17:54:52 10° SSW 17:59:57 68° WNW 18:05:05 10° NNE
Feng Yun 1-1 Rocket 4.4 17:57:01 10° SE 18:02:26 53° ENE 18:07:45 10° N
Cosmos 2219 3.7 17:58:09 10° NNW 18:03:39 44° ENE 18:09:07 10° SE
Cosmos 1190 Rocket 4.0 18:05:03 10° SSW 18:10:16 87° ESE 18:15:31 10° NNE
DMSP B5D1-3 4.5 18:05:12 10° NNE 18:10:17 65° ESE 18:15:20 10° S
Cosmos 1726 3.8 18:12:15 15° ENE 18:12:15 15° ENE 18:13:50 10° NE
Cosmos 1954 Rocket 3.9 18:07:59 10° S 18:13:04 61° ESE 18:18:10 10° NNE
In-Cosmos 22 4.1 18:10:07 10° NNW 18:15:28 84° W 18:20:45 10° S
Cosmos 1634 Rocket 3.9 18:10:08 10° N 18:16:21 85° E 18:22:30 10° S
Cosmos 1805 3.9 18:13:47 10° SSE 18:17:13 31° E 18:20:40 10° NNE
USA 229 DEB 4.4 18:10:38 10° NNW 18:17:37 45° NE 18:23:22 17° ESE
USA 229 4.4 18:10:44 10° NNW 18:17:43 45° NE 18:23:26 17° ESE
Cosmos 1975 2.9 18:13:51 10° S 18:17:54 83° W 18:21:59 10° N
Cosmos 2279 Rocket 4.0 18:12:30 10° N 18:18:41 58° ENE 18:24:50 10° SSE
HJ-1C 3.5 18:16:05 10° S 18:19:11 68° W 18:22:19 10° NNW
Resurs 01 Rocket 3.5 18:22:46 14° ENE 18:23:02 14° ENE 18:25:15 10° NNE
COBE Rocket 4.3 18:18:13 10° S 18:23:13 69° W 18:28:05 10° NNW
IGS 5A 4.2 18:22:28 19° ESE 18:24:45 33° ENE 18:28:30 10° N
Cosmos 2221 Rocket 4.1 18:21:10 10° N 18:25:24 39° ENE 18:28:31 17° SE
Cosmos 2082 4.4 18:21:29 10° NNW 18:26:48 37° NE 18:29:58 21° ESE
YAOGAN 1 3.3 18:26:11 10° S 18:30:25 55° W 18:34:41 10° NNW
Cosmos 2263 Rocket 3.4 18:25:53 10° N 18:30:32 25° NE 18:32:40 20° E
Cosmos 540 Rocket 3.8 18:27:21 10° N 18:32:16 45° ENE 18:35:09 23° SE
Cosmos 1763 Rocket 3.3 18:28:31 10° NNW 18:33:36 75° ENE 18:38:07 13° SSE
Aureole 1 4.3 18:31:24 10° S 18:34:19 44° ESE 18:37:15 10° NNE
Cosmos 1674 Rocket 4.1 18:32:13 10° N 18:36:18 37° ENE 18:37:48 28° ESE
SJ-6B 2.8 18:37:04 29° SE 18:38:38 49° ENE 18:42:15 10° N
Okean-O 2.8 18:40:53 25° SE 18:43:11 52° ENE 18:47:30 10° N
GENESIS II 4.5 18:39:37 10° NNW 18:43:38 54° NE 18:44:53 38° ESE
IRIDIUM 106 4.4 18:39:10 10° SSE 18:44:14 55° E 18:49:20 10° NNE
OBJECT-B 0.1 18:44:26 71° SSE 18:44:40 86° E 18:47:23 10° N
NOSS 3-1 (A) 4.1 18:37:41 10° NW 18:45:12 79° NE 18:51:45 20° SE
Cosmos 1697 Rocket 2.6 18:39:50 10° SSW 18:45:26 86° ESE 18:51:06 10° NNE
Cosmos 1242 Rocket 2.3 18:43:00 10° S 18:46:34 80° E 18:50:09 10° NNE
Cosmos 1626 3.1 18:43:36 10° NNW 18:47:06 46° W 18:50:34 10° SSW
CSL-04 Debris 4.1 18:44:30 12° SSE 18:49:34 76° ENE 18:55:00 10° N
CZ-2C R/B 2.8 18:47:24 10° SW 18:49:25 17° S 18:49:25 17° S
CZ-3 Stage 3 4.4 18:47:52 10° SW 18:53:50 39° SSE 19:03:48 24° ESE
Lacrosse 5 3.4 18:55:37 10° WNW 19:00:04 31° SW 19:03:53 13° S
Meteor 2-10 4.1 18:54:35 10° S 19:00:18 78° E 19:05:56 10° NNE
Resurs 1-3 3.6 18:59:48 45° SE 19:00:56 62° ENE 19:05:16 10° N
deb Chang Zheng 4 3.7 19:03:09 46° ENE 19:03:09 46° ENE 19:07:00 10° N
NOSS 2-2 (D) 4.3 18:59:06 10° NW 19:04:13 89° SW 19:07:46 30° SE
Cosmos 2227 Rocket 2.8 18:58:51 10° NNW 19:04:22 55° WSW 19:09:19 13° S
CZ-4C R/B 4.5 18:58:29 10° NW 19:05:13 35° WSW 19:12:45 10° S
Meteor 1-15 Rocket 4.4 19:07:49 43° ESE 19:08:36 45° E 19:13:53 10° NNE
Cosmos 1378 Rocket 3.4 19:05:06 10° N 19:09:32 83° E 19:10:41 49° SSE
SL-4 R/B 3.6 19:06:34 10° WNW 19:10:40 32° N 19:12:27 25° NE
Meteor 2-5 Rocket 4.2 19:06:50 10° N 19:11:58 37° ENE 19:11:58 37° ENE
Cosmos 1733 Rocket 4.0 19:11:51 10° SSW 19:16:07 49° WNW 19:20:27 10° N
Cosmos 2369 3.6 19:10:32 10° SSW 19:16:15 82° ESE 19:22:00 10° NNE
Landsat 5 4.4 19:14:27 10° N 19:18:48 52° WNW 19:23:09 10° SSW
Cosmos 2297 Rocket 4.1 19:14:42 10° NW 19:19:22 27° WSW 19:24:00 10° SSW
Meteor 2-14 Rocket 4.5 19:14:34 10° SSW 19:20:39 78° W 19:26:45 10° N
Cosmos 1980 Rocket 2.1 19:17:14 10° SSW 19:22:53 86° ESE 19:28:33 10° NNE
Cosmos 2026 Rocket 4.2 19:25:48 44° ENE 19:25:48 44° ENE 19:30:55 10° NNE
ISS -1.8 19:22:54 10° NW 19:25:11 24° N 19:25:11 24° N
CSL-04 Rocket 4.1 19:22:21 20° S 19:25:57 60° WSW 19:31:15 10° NNW
Okean O Rocket 4.3 19:23:34 10° SW 19:26:29 18° W 19:29:26 10° NW
USA 186 4.1 19:27:58 20° WNW 19:27:58 20° WNW 19:29:14 10° NW
SL-14 R/B 4.1 19:24:00 10° NNW 19:27:47 48° W 19:28:41 39° SW
Meteor 2-21 Rocket 4.3 19:23:33 10° S 19:29:38 87° E 19:35:43 10° N
Nadezhda 4 Rocket 4.0 19:24:02 10° S 19:30:21 82° W 19:36:44 10° N
CZ-4 R/B 4.3 19:30:26 10° SW 19:33:02 16° W 19:35:39 10° NW
H-2A R/B 2.9 19:34:03 54° N 19:34:03 54° N 19:37:11 10° NNW
Meteor 1-12 Rocket 4.2 19:29:02 12° S 19:34:38 88° E 19:40:42 10° N
Cosmos 1850 Rocket 4.3 19:37:55 10° SSW 19:43:04 63° WNW 19:48:18 10° NNE
Cosmos 1726 3.8 19:46:22 33° WNW 19:46:22 33° WNW 19:49:33 10° N
USA 81 4.4 19:41:36 10° N 19:45:49 54° NNE 19:45:49 54° NNE
Ariane Rocket 3.8 19:48:39 42° NNE 19:48:39 42° NNE 19:52:15 10° N
Meteor 2-16 Rocket 4.5 19:47:46 26° SSW 19:51:23 76° W 19:57:33 10° N
Cosmos 2292 Rocket 4.4 19:44:35 10° SSW 19:51:27 74° W 19:56:38 10° N
Resurs 01 Rocket 2.7 20:00:20 42° NNW 20:00:20 42° NNW 20:03:22 10° NNW
USA 281 3.7 19:59:20 45° NE 19:59:20 45° NE 20:05:11 10° NNW
Cosmos 1844 Rocket 4.2 19:55:06 10° N 19:58:31 24° NNE 19:58:31 24° NNE
Cosmos 1092 Rocket 3.9 19:59:44 66° SSW 20:00:43 84° W 20:07:04 10° N
Cosmos 841 Rocket 4.2 19:56:38 10° NNW 20:01:35 46° WSW 20:01:52 46° WSW
Terra 4.1 20:04:55 15° NNE 20:04:55 15° NNE 20:05:54 10° N
Gbstr 26 Del rocket 4.4 19:56:15 10° SW 20:03:34 66° SSE 20:03:34 66° SSE
USA 229 DEB 4.5 20:01:36 10° NW 20:08:48 52° WSW 20:10:50 43° SSW
USA 229 4.4 20:01:42 10° NW 20:08:54 53° WSW 20:10:54 43° SSW
Cosmos 2263 Rocket 2.6 20:09:16 10° NNW 20:14:22 58° W 20:14:22 58° W
SPOT 1/Viking Rocket 4.3 20:18:06 48° WNW 20:18:06 48° WNW 20:22:24 10° NNW
USA 215 4.2 20:39:29 37° NNE 20:39:45 37° NNE 20:45:38 10° NW
